Wind_Speed
17 15 13 3 3 4 4 4 3 6 18 16 14 8 5 4 2 3 3 24 33 33 32 28 24 21 19 17 17 17 18 19 20 21 21 21 21 20 20 20 19 17 16 16 17 17 17 15 15
17 11 1 2 4 4 6 8 15 10 2 5 13 8 10 5 5 12 17 26 36 37 34 30 27 23 21 19 18 18 18 19 20 20 20 20 20 19 18 17 16 15 13 13 13 14 13 12 10
15 3 2 3 3 3 5 15 14 19 16 7 6 9 5 3 9 11 18 37 35 35 33 30 27 24 22 21 19 18 18 18 19 19 19 18 18 17 16 15 14 13 11 11 10 10 10 10 8
5 5 4 3 5 6 5 8 19 19 13 8 7 6 8 7 11 16 38 37 36 34 31 28 25 23 22 20 20 19 18 18 18 18 17 16 16 16 15 14 13 11 10 9 9 8 8 7 5
2 3 3 1 6 6 2 5 4 13 5 6 13 4 2 6 21 36 36 32 34 32 30 28 26 23 21 20 18 17 17 16 16 16 15 14 15 14 13 12 10 9 8 7 6 4 3 2 2
4 3 4 3 5 1 5 5 10 7 6 6 7 6 3 23 35 31 33 32 31 33 29 27 25 23 21 19 18 17 16 15 14 14 13 13 12 12 11 10 8 7 6 4 3 2 0 1 1
5 3 4 3 4 2 4 7 3 7 6 4 1 6 6 20 28 33 30 30 29 28 28 25 24 22 20 19 18 17 15 14 13 13 12 12 11 10 9 8 7 5 4 3 2 3 3 4 4
4 3 3 2 4 6 4 1 2 5 5 5 6 5 4 15 30 32 33 31 31 30 29 28 25 23 21 20 18 17 16 14 13 12 12 11 10 9 8 7 6 5 4 4 5 5 5 6 7
3 3 2 3 4 3 4 6 4 3 4 2 3 2 6 31 36 33 28 26 30 30 31 29 28 24 22 20 19 18 17 15 14 13 12 11 11 10 9 8 7 6 5 5 6 7 7 8 9
4 4 5 5 3 3 8 2 8 4 5 4 1 2 3 22 32 29 24 22 25 28 32 31 29 27 24 23 21 20 19 18 17 16 15 14 12 11 9 9 9 8 9 10 10 10 10 12 11
3 5 5 12 7 7 9 7 2 8 4 8 14 11 10 11 19 25 24 28 29 31 32 33 31 29 27 25 23 22 22 20 19 17 16 14 14 13 13 11 12 13 12 14 13 14 16 17 14
4 5 6 9 5 7 2 11 5 8 10 17 12 8 11 11 11 24 23 27 29 33 34 34 32 32 28 26 26 24 23 22 21 20 17 17 16 16 15 13 15 18 18 17 17 17 18 19 18
5 9 7 10 4 10 4 5 10 11 9 6 10 8 12 13 8 24 37 38 33 30 32 35 34 33 31 28 26 24 23 23 20 18 18 17 16 17 15 17 17 20 19 17 18 19 21 23 23
5 6 11 9 9 6 6 4 5 11 7 8 11 12 5 5 4 24 34 31 31 31 35 34 35 34 34 30 27 24 23 22 20 19 18 18 16 17 16 14 13 15 15 14 14 17 17 18 19
5 6 9 6 4 6 6 4 5 7 7 14 9 6 8 3 12 20 31 26 28 37 32 35 36 36 34 29 28 25 22 21 22 22 23 21 18 14 16 16 13 12 9 10 12 14 13 9 8
5 1 4 8 3 5 8 10 10 7 11 11 12 15 14 11 14 19 18 17 24 23 30 34 33 35 35 32 28 19 23 19 22 23 25 24 23 20 19 17 17 15 14 15 17 16 14 9 4
5 5 7 9 5 4 6 11 9 7 9 11 13 14 15 14 16 19 23 24 24 27 25 32 30 32 31 27 23 18 15 11 9 10 11 18 26 24 20 19 17 11 10 11 10 10 11 10 10
4 4 5 7 6 5 7 12 6 9 11 17 12 13 13 13 10 18 20 23 27 27 24 21 23 26 18 15 10 10 10 11 11 12 9 10 12 20 15 17 9 8 9 7 9 10 12 12 14
4 5 10 15 12 5 15 19 11 11 11 13 13 14 12 13 10 21 21 19 20 21 23 21 18 14 18 15 12 9 5 2 6 8 8 3 11 11 11 5 3 6 7 9 11 12 14 12 16
7 9 16 16 8 6 4 16 9 9 9 21 18 13 15 10 7 11 20 19 17 17 17 17 15 13 12 12 11 5 7 16 19 21 24 21 16 14 11 9 9 10 10 11 13 14 14 10 15
11 7 15 16 6 3 3 8 1 7 5 13 14 16 13 18 14 9 13 20 20 17 15 14 14 13 9 9 13 20 23 21 18 17 18 16 13 10 10 9 9 9 12 14 13 13 11 9 9
10 11 15 9 0 4 5 4 5 5 10 15 16 13 14 14 11 10 15 18 20 19 16 14 13 11 9 9 18 21 22 22 18 15 15 16 15 14 15 14 15 14 14 17 16 14 12 10 11
13 17 13 9 4 2 1 4 8 4 8 8 14 16 15 14 15 14 14 21 21 22 19 15 15 14 14 14 19 22 22 21 22 23 23 20 19 18 17 17 17 15 15 14 15 15 14 13 11
11 6 5 3 2 8 7 7 8 5 8 6 10 11 12 13 13 11 18 25 25 24 23 20 21 21 20 21 22 23 22 23 26 24 23 20 19 19 18 17 16 15 15 15 15 12 14 13 13
6 5 4 4 3 8 6 6 9 6 10 10 18 18 18 18 18 17 18 21 24 26 25 24 24 23 23 27 25 26 27 26 29 24 21 19 17 16 15 14 14 14 14 14 15 13 13 13 15
8 8 6 9 5 10 6 6 10 11 11 9 19 24 18 16 15 18 18 23 24 29 27 27 27 26 24 24 27 29 28 29 25 22 21 19 16 14 11 11 11 12 12 13 13 14 14 14 14
9 5 8 9 2 1 5 8 6 4 7 12 13 21 21 18 18 20 20 23 25 28 28 28 26 24 23 25 25 25 25 24 24 21 18 15 12 9 8 9 10 11 12 12 11 14 15 14 13
8 5 7 1 4 11 4 6 7 7 6 3 13 19 18 17 19 18 18 24 26 30 29 26 24 22 24 26 23 22 19 19 19 17 14 11 8 6 6 9 11 11 10 11 13 15 13 13 11
4 3 3 3 5 11 16 8 7 11 11 15 17 21 22 23 21 19 20 26 30 33 32 29 27 24 24 22 20 20 18 17 14 13 11 8 5 5 8 10 11 11 12 12 14 14 13 13 11
8 9 6 3 7 2 3 5 1 9 6 4 7 12 18 23 19 20 21 29 31 31 34 34 29 26 24 23 22 19 18 16 14 11 7 3 3 5 8 10 10 11 13 13 15 17 12 9 11
Wind_Direction
315 326 311 73 57 83 159 23 360 1 64 56 68 93 91 63 182 186 151 161 156 153 154 156 152 147 140 133 125 118 114 114 114 114 115 115 114 113 114 113 112 110 108 106 107 106 108 109 109
319 337 74 84 69 26 47 127 53 21 317 4 64 47 55 77 65 120 121 155 154 151 156 157 155 152 146 140 133 125 121 122 121 121 121 121 120 119 119 117 114 111 109 109 110 109 110 112 115
329 8 63 93 109 140 116 122 114 71 42 47 51 32 34 81 117 139 161 158 155 152 157 159 157 155 150 145 139 134 129 128 128 127 128 128 127 126 123 120 118 117 116 115 113 111 111 115 120
327 12 16 73 301 264 134 179 140 112 95 74 77 46 320 11 153 161 158 159 156 154 158 159 158 157 154 150 146 142 136 134 135 135 136 135 133 134 131 129 127 125 124 122 119 115 113 115 114
19 62 39 92 265 306 351 171 247 80 95 106 105 172 47 33 133 146 155 159 153 152 158 160 162 161 158 155 151 146 142 140 141 142 143 143 140 139 137 136 136 135 136 134 131 123 110 90 61
13 103 26 327 285 331 352 243 114 126 180 179 108 139 133 135 131 151 158 160 158 155 159 161 163 163 162 160 157 154 151 150 149 150 153 154 151 149 148 150 151 149 150 153 153 175 191 325 317
128 89 215 253 297 28 210 259 126 152 146 231 33 97 125 157 154 154 163 159 161 160 159 162 164 166 166 166 165 162 162 162 163 162 163 164 163 161 162 168 170 174 182 205 221 246 257 267 270
109 98 348 263 328 329 113 293 124 69 220 345 355 127 172 166 158 161 160 162 163 165 166 166 167 171 171 172 174 172 174 175 177 177 177 178 177 178 183 188 192 203 219 244 260 268 273 269 268
92 57 277 271 48 13 163 149 286 337 100 294 131 319 146 153 157 149 151 156 165 171 173 171 171 174 176 178 179 181 184 186 188 191 193 195 197 198 202 211 216 220 241 259 271 272 275 273 273
110 131 250 208 245 173 204 32 154 133 191 268 28 218 185 138 148 149 159 160 170 179 179 178 176 176 178 184 187 189 191 195 198 201 205 209 209 210 213 224 227 238 260 267 267 261 262 263 269
200 202 228 281 263 266 191 138 185 156 242 219 201 176 171 161 154 160 170 173 177 184 181 185 183 181 181 187 192 195 199 202 205 210 214 216 219 220 219 232 240 248 254 268 273 263 258 261 273
256 250 220 277 237 273 304 147 179 211 210 204 208 189 172 183 173 169 168 170 182 186 189 189 188 187 186 189 196 199 203 207 211 215 217 219 221 220 227 244 256 255 256 266 274 276 277 277 278
195 265 282 266 251 241 268 143 184 224 249 170 206 199 197 199 140 166 181 187 186 178 189 195 189 192 188 188 193 203 209 210 213 215 216 216 223 227 233 249 268 253 258 270 277 281 279 283 285
275 286 282 289 262 212 191 253 118 228 227 185 187 204 185 310 171 175 181 187 176 182 191 195 192 195 193 193 194 204 208 210 214 217 217 217 223 229 234 254 265 254 254 272 277 286 292 288 287
268 300 309 278 261 210 134 326 224 189 175 204 204 126 93 133 113 190 191 185 200 192 189 199 196 202 200 202 201 207 215 220 224 230 231 230 231 232 238 247 262 271 281 301 295 289 285 283 272
342 99 291 276 203 249 124 253 258 236 145 121 125 123 111 85 79 84 141 185 190 196 196 201 198 204 204 209 199 206 218 235 240 242 248 243 241 235 238 245 253 262 273 292 302 304 308 347 51
9 248 268 297 216 204 157 247 248 191 167 137 134 125 110 97 74 79 103 120 138 182 183 198 194 192 191 190 191 187 183 197 212 229 247 240 241 237 245 260 270 273 275 293 322 336 343 354 347
245 298 303 255 273 167 249 252 251 195 160 151 150 133 124 120 119 101 104 111 116 127 135 155 187 197 196 197 206 206 210 230 244 254 269 252 247 214 255 267 280 276 281 305 333 341 345 353 355
256 254 264 269 267 187 237 228 204 195 154 152 161 153 146 136 142 120 118 115 114 113 117 125 142 164 197 186 191 199 209 206 89 72 76 160 189 207 208 193 102 49 44 30 11 3 359 4 1
262 263 275 284 252 183 267 218 200 184 189 166 164 160 153 144 149 132 127 124 121 122 119 117 128 136 152 180 167 134 134 102 107 100 91 96 96 89 90 81 62 36 33 32 27 28 21 9 13
255 237 261 249 257 319 75 325 261 236 206 158 177 168 159 161 157 152 139 135 132 128 131 132 121 128 144 158 138 123 118 109 100 89 83 78 83 64 67 55 44 35 21 24 24 27 15 0 3
256 235 248 263 320 245 118 256 292 249 236 168 178 174 170 164 154 150 141 134 132 127 132 139 129 122 132 125 149 147 135 116 106 101 95 84 77 81 71 64 55 49 41 41 40 32 34 17 17
249 267 251 238 244 115 180 115 261 299 217 214 188 188 187 169 155 154 145 132 129 130 123 128 133 131 124 137 139 135 123 120 118 111 98 88 80 74 70 62 58 53 44 40 32 32 33 30 22
259 276 303 32 107 264 243 160 252 212 213 198 205 203 172 158 150 144 131 127 128 131 131 132 129 122 125 124 124 122 125 131 125 113 104 95 87 79 71 63 55 47 38 30 22 22 22 22 19
211 70 315 309 289 240 232 262 241 245 234 197 182 186 182 172 162 151 141 139 139 139 136 132 128 124 125 120 120 122 114 131 127 119 112 103 94 82 70 58 48 37 25 15 13 14 9 8 3
251 171 175 238 232 256 206 240 262 236 239 225 190 186 170 166 156 149 146 145 145 144 141 135 128 124 127 126 122 123 125 121 122 123 114 105 98 88 72 52 36 23 10 2 2 3 6 359 3
265 219 204 239 224 227 206 274 293 276 301 281 179 166 170 161 155 149 145 149 147 151 149 140 138 135 136 136 129 122 124 125 124 121 117 107 96 81 55 29 14 4 355 353 352 350 351 356 1
182 204 273 21 209 258 232 231 237 249 244 127 143 165 163 152 152 149 151 152 155 157 154 146 142 138 133 139 137 131 133 131 127 126 120 112 99 73 38 16 6 3 0 357 347 345 348 339 355
279 248 260 253 179 248 258 251 217 231 208 179 177 173 166 157 158 156 163 160 157 161 158 155 155 155 149 148 144 135 137 136 132 126 119 111 93 43 18 13 7 4 356 347 342 344 338 338 340
221 247 202 192 252 193 171 267 337 56 57 55 151 164 166 159 161 163 159 159 160 162 161 161 165 166 162 160 154 146 157 150 146 141 135 122 55 23 18 13 9 5 357 346 338 335 332 339 349
Height
783 782 780 783 809 814 829 820 809 794 782 771 765 776 786 783 792 819 790 795 799 804 807 812 815 816 817 819 820 820 820 821 821 822 822 823 823 824 825 825 826 827 828 828 828 829 829 830 830
782 782 781 789 817 828 826 812 811 804 787 779 771 775 780 794 785 793 797 800 800 800 806 810 812 815 817 818 820 821 822 822 822 823 824 824 824 825 826 827 828 829 830 830 830 831 832 832 832
781 781 789 804 824 826 831 800 798 789 783 782 784 776 782 795 792 792 794 799 802 803 807 810 812 816 817 818 820 821 822 823 823 824 825 825 825 826 828 830 830 831 832 832 833 833 833 833 834
781 782 790 812 814 799 793 794 777 768 773 779 780 796 787 785 787 790 795 799 801 804 808 813 816 818 819 821 821 822 823 823 825 825 826 826 827 828 829 831 832 832 834 834 834 835 835 835 835
782 792 817 821 813 792 784 782 774 779 782 778 770 797 792 789 786 793 799 804 803 805 810 814 817 819 821 822 824 824 824 825 825 826 827 827 828 830 831 832 833 834 835 835 836 836 837 837 837
794 798 826 833 811 789 790 786 772 778 780 776 779 786 789 789 789 798 800 804 806 805 809 813 817 819 822 823 824 825 826 827 827 827 828 829 830 832 833 834 834 836 836 837 837 837 837 837 836
797 812 825 815 812 796 797 785 778 781 780 777 765 790 785 790 792 796 800 802 805 808 811 814 817 820 822 824 825 826 826 827 828 828 829 830 832 834 834 835 836 836 837 837 836 836 837 836 835
790 804 813 809 817 807 786 791 783 781 781 770 772 792 796 785 794 797 800 804 805 807 810 812 816 819 821 823 825 825 826 827 828 829 830 831 832 833 833 834 835 836 836 836 835 835 836 834 834
780 816 824 810 803 801 789 792 780 775 780 778 776 777 776 782 789 796 802 806 806 808 809 811 813 817 820 822 823 824 825 826 827 828 829 830 831 832 832 833 834 835 835 834 834 835 834 833 833
794 819 808 790 782 790 789 790 783 785 785 781 777 776 778 784 789 793 800 803 806 807 808 809 811 813 817 820 822 822 824 824 825 826 827 829 829 830 831 832 833 833 833 833 833 833 833 832 832
788 804 789 777 776 772 785 786 779 787 796 775 772 773 774 778 786 791 796 797 799 804 806 808 810 810 812 816 819 820 821 822 823 824 825 827 828 828 829 830 831 831 832 831 831 830 830 830 832
793 781 781 774 770 768 768 774 784 783 770 756 761 765 768 771 780 788 789 793 794 797 802 805 807 809 810 812 816 817 819 820 821 821 823 825 826 827 828 828 829 829 830 829 829 829 829 830 830
788 780 774 769 771 769 758 766 777 779 760 761 763 765 768 769 776 783 782 784 788 793 798 803 804 806 808 809 813 816 817 818 819 820 821 823 824 825 827 827 827 828 829 828 828 827 828 827 826
775 777 775 768 769 765 768 762 760 768 759 764 764 764 767 774 780 781 779 782 786 790 793 800 802 805 807 806 810 813 815 816 817 818 820 822 823 824 826 827 827 827 828 828 826 825 825 825 824
775 786 778 770 762 764 761 777 773 758 760 765 766 771 773 772 775 775 773 777 783 787 789 795 800 805 805 806 808 810 813 815 815 816 818 820 823 825 826 827 827 827 827 826 825 823 823 823 822
785 785 802 774 761 759 766 801 768 758 760 771 771 772 775 777 776 776 779 784 786 786 789 794 799 803 805 806 808 810 811 813 813 815 817 821 821 820 823 824 824 825 825 824 823 821 821 820 819
802 811 801 787 762 765 771 788 765 757 760 773 773 772 770 774 777 777 780 782 784 785 790 794 799 802 805 807 808 809 810 812 813 815 817 818 817 819 823 824 825 823 822 820 821 820 819 819 818
813 808 798 797 770 773 780 780 764 758 761 769 771 771 772 774 778 779 780 783 787 790 791 794 798 802 804 805 806 808 809 809 809 809 812 816 815 818 817 822 822 820 819 818 818 818 819 818 816
794 799 803 779 764 777 773 768 768 757 758 771 771 771 773 774 777 778 779 782 784 788 791 793 795 798 800 802 804 806 808 808 809 810 811 813 814 815 820 820 820 818 819 817 816 817 817 816 814
793 802 798 774 764 771 767 765 760 758 756 755 762 770 771 775 777 778 777 779 782 785 788 791 794 797 799 800 801 804 806 809 811 813 814 816 817 818 819 819 818 819 818 816 815 816 816 816 816
790 797 789 787 764 756 761 779 764 755 749 756 755 755 763 765 772 775 776 778 779 784 787 789 793 796 798 799 799 803 806 810 813 814 815 818 818 821 820 820 821 819 818 816 817 817 817 817 817
800 769 769 770 776 797 764 816 778 764 759 756 756 761 761 764 769 771 773 776 779 782 787 789 790 794 796 798 801 802 806 809 814 816 817 818 819 821 818 820 818 817 818 818 819 819 818 818 816
776 753 764 760 772 780 779 806 787 766 771 766 760 756 756 757 761 766 769 774 780 782 788 790 791 793 795 798 801 802 806 810 815 818 818 819 820 820 819 819 818 819 820 820 820 820 819 818 817
753 760 763 772 782 797 784 795 779 776 759 755 756 755 757 758 762 768 771 775 782 784 787 791 793 796 798 800 803 805 808 812 816 818 820 821 822 822 823 822 822 822 822 821 821 821 820 819 817
759 782 812 814 811 803 770 785 763 745 739 737 743 749 752 752 755 761 768 775 782 784 788 792 795 799 801 801 803 807 810 813 816 819 821 823 824 825 826 825 825 824 823 823 822 821 820 819 818
763 776 810 821 819 788 771 787 757 731 724 723 724 729 744 752 757 761 766 773 779 784 789 792 798 800 804 806 806 807 810 814 817 820 822 824 825 827 827 827 825 825 824 822 821 821 820 819 818
757 774 760 779 777 797 784 758 731 724 726 720 719 729 737 746 752 758 767 774 779 785 790 792 797 802 803 807 810 812 813 815 817 821 823 824 826 827 827 827 827 825 824 822 821 820 819 818 817
744 740 768 787 799 805 782 768 760 741 728 726 728 732 737 744 751 757 763 770 776 783 789 793 800 806 806 808 810 811 817 817 818 820 823 824 826 828 829 828 828 826 825 823 820 819 818 817 817
747 754 751 758 772 774 774 765 734 727 722 725 724 723 727 733 742 750 758 766 771 780 786 790 795 801 805 810 812 811 819 818 819 821 823 825 826 827 828 828 827 827 825 823 821 818 817 817 816
740 746 753 780 772 772 780 774 726 727 724 724 723 726 725 725 736 745 753 760 768 774 780 786 793 798 802 806 811 812 819 818 820 821 822 824 825 827 827 827 827 826 825 823 821 818 816 815 814